Starlink 32939

operational
NORAD ID: 63149 Int'l Des: 2025-043 Owner: SPXS Country: US Constellation: starlink
LEOCIRCULAR

Über Starlink 32939

Beschreibung wird geladen...

Live-Position

3D-Globus wird geladen...

Nächste Überflüge

Höhenverlauf

Altitude vs Time

uPlot chart will show altitude changes over time

Zweizeiliger Elementsatz

1 63149U 25043T 26036.00002314 .00046170 00000-0 16776-2 0 9991
2 63149 43.0005 200.6500 0002116 276.4302 138.9359 15.27564655 5913
Epoch: 5. Feb. 2026 • Age: 14 hours

Aktueller Status

Höhe 487.3 km
Geschwindigkeit 7.63 km/s
Subsatellitenpunkt 42.65°N, 72.84°W
Startdatum 3. März 2025
Alter 0.9 years
Typ internet

Technische Details

Klassifizierung Payload
Masse 730.00 kg
Trockenmasse 700.00 kg
Gesamtmasse 730.00 kg
Länge 0.30 m
Durchmesser 4.10 m
Spannweite 29.00 m
Form Box + pan
Hersteller SPXS
Bus-Typ Starlink V2M
Phasenstatus In Orbit
Besitzer/Staat SPXS/US

Große Konstellationen

Loading constellations...